Weather History for Lewistown, MT

Change the Weather History Date:

Tuesday, February 5, 2013

  Actual Average Record
Temperature  
Mean Temperature 34 °F 25 °F  
Max Temperature 43 °F 35 °F 60 °F (1984)
Min Temperature 24 °F 14 °F -29 °F (2014)
Degree Days  
Heating Degree Days 31 40  
Month to date heating degree days 171 203  
Since 1 July heating degree days 4596 4908  
Cooling Degree Days 0 0  
Month to date cooling degree days 0 0  
Year to date cooling degree days 0 0  
Moisture  
Dew Point 25 °F    
Average Humidity 66    
Maximum Humidity 78    
Minimum Humidity 53    
Precipitation  
Precipitation T in 0.01 in 0.86 in (1979)
Month to date precipitation 0.02 0.08  
Year to date precipitation 1.01 0.65  
Snow  
Snow 0.00 in - - ()
Snow Depth 2.00 in    
Sea Level Pressure  
Sea Level Pressure 29.85 in    
Wind  
Wind Speed 9 mph (SW)    
Max Wind Speed 24 mph    
Max Gust Speed 31 mph    
Visibility 10 miles    
Events      
T = Trace of Precipitation, MM = Missing Value Source: NWS Daily Summary

Daily Weather History Graph

Daily Weather History Graph

Search for Another Location

Airport:

Trip Planner

Search our weather history database for the weather conditions in past years. The results will help you decide how hot, cold, wet, or windy it might be!

Date:

Astronomy

Feb. 05, 2013 Rise Set
Actual Time 7:37 AM MST 5:27 PM MST
Civil Twilight 7:04 AM MST 5:59 PM MST
Nautical Twilight 6:28 AM MST 6:35 PM MST
Astronomical Twilight 5:53 AM MST 7:11 PM MST
Moon 3:29 AM MST (2/5) 12:40 PM MST (2/5)
Length of Visible Light 10h 54m
Length of Day
9h 50m
Waning Crescent, 26% of the Moon is Illuminated
Feb 5
Waning Crescent
Feb 10
New
Feb 17
First Quarter
Feb 25
Full
Mar 4
Last Quarter

Hourly Weather History & Observations

Time (MST) Temp. Windchill Dew Point Humidity Pressure Visibility Wind Dir Wind Speed Gust Speed Precip Events Conditions
12:54 AM 30.0 °F 23.2 °F 21.9 °F 72% 29.95 in 10.0 mi WSW 6.9 mph - N/A   Mostly Cloudy
1:54 AM 30.0 °F 22.4 °F 23.0 °F 75% 29.95 in 10.0 mi SSW 8.1 mph - N/A   Overcast
2:54 AM 30.9 °F 22.8 °F 24.1 °F 76% 29.95 in 10.0 mi WSW 9.2 mph - N/A   Overcast
3:54 AM 28.9 °F 20.4 °F 23.0 °F 78% 29.95 in 10.0 mi SSW 9.2 mph - N/A   Mostly Cloudy
4:54 AM 30.0 °F 25.2 °F 21.9 °F 72% 29.94 in 10.0 mi SSW 4.6 mph - N/A   Clear
5:54 AM 28.0 °F - 21.0 °F 75% 29.95 in 10.0 mi Calm Calm - N/A   Clear
6:54 AM 32.0 °F - 21.0 °F 64% 29.92 in 10.0 mi Calm Calm - N/A   Clear
7:54 AM 26.1 °F 18.4 °F 19.9 °F 78% 29.94 in 10.0 mi ESE 6.9 mph - N/A   Clear
8:54 AM 28.0 °F 21.7 °F 21.0 °F 75% 29.93 in 10.0 mi SE 5.8 mph - N/A   Overcast
9:54 AM 32.0 °F - 24.1 °F 73% 29.90 in 10.0 mi Calm Calm - N/A   Overcast
10:54 AM 37.9 °F 35.5 °F 26.1 °F 62% 29.87 in 10.0 mi WSW 3.5 mph - N/A   Clear
11:54 AM 39.0 °F 30.6 °F 26.1 °F 60% 29.83 in 10.0 mi SW 15.0 mph - N/A   Mostly Cloudy
12:54 PM 39.9 °F 31.4 °F 27.0 °F 60% 29.81 in 10.0 mi SW 16.1 mph - N/A   Scattered Clouds
1:54 PM 39.9 °F 31.4 °F 28.0 °F 63% 29.77 in 10.0 mi SW 16.1 mph - N/A   Mostly Cloudy
2:54 PM 42.1 °F 39.2 °F 27.0 °F 55% 29.76 in 10.0 mi NW 4.6 mph - 0.00 in   Overcast
3:54 PM 37.9 °F 28.5 °F 28.9 °F 70% 29.77 in 10.0 mi SW 17.3 mph - N/A   Scattered Clouds
4:54 PM 37.9 °F 27.9 °F 28.9 °F 70% 29.76 in 10.0 mi SW 19.6 mph - N/A   Clear
5:54 PM 37.9 °F 28.5 °F 28.0 °F 68% 29.76 in 10.0 mi SW 17.3 mph - N/A   Mostly Cloudy
6:54 PM 37.0 °F 29.3 °F 28.0 °F 70% 29.75 in 10.0 mi SW 11.5 mph - N/A   Mostly Cloudy
7:54 PM 36.0 °F 28.0 °F 27.0 °F 70% 29.76 in 10.0 mi WSW 11.5 mph - N/A   Clear
8:54 PM 34.0 °F 25.5 °F 26.1 °F 73% 29.76 in 10.0 mi West 11.5 mph - N/A   Partly Cloudy
9:54 PM 34.0 °F 25.5 °F 26.1 °F 73% 29.75 in 10.0 mi SW 11.5 mph - N/A   Overcast
10:54 PM 30.0 °F 20.5 °F 23.0 °F 75% 29.75 in 10.0 mi SW 11.5 mph - N/A   Clear